Location: Quaker Farms
(41.4276°N, 73.1557°W)
Time: 01:48:33
(UTC+00:00)

Altair - Pass Details

Date: 24 June 2021
Orbit: 1501 x 1682 km, 47.2° (Epoch: 23 July)

Event Time Altitude Azimuth Distance (km) Brightness Sun altitude
Rises 00:13:15 0° 296° (WNW) 4,828 13.4 1.9°
Reaches altitude 10° 00:16:37 10° 289° (WNW) 3,864 11.6 1.3°
Maximum altitude 00:25:21 37° 227° (SW) 2,385 8.7 -0.1°
Drops below altitude 10° 00:34:16 10° 164° (SSE) 3,931 9.2 -1.5°
Sets 00:37:46 0° 157° (SSE) 4,920 9.6 -2.0°
